Weather History for KMQY - November, 2011

Change the Weather History Date:

Monday, November 7, 2011

  Actual Average Record
Temperature  
Mean Temperature 57 °F -  
Max Temperature 75 °F 59 °F 82 °F (2005)
Min Temperature 39 °F 43 °F 27 °F (2007)
Degree Days  
Heating Degree Days 8    
Growing Degree Days 7 (Base 50)    
Moisture  
Dew Point 48 °F    
Average Humidity 87    
Maximum Humidity 100    
Minimum Humidity 45    
Precipitation  
Precipitation 0.00 in - - ()
Sea Level Pressure  
Sea Level Pressure 30.26 in    
Wind  
Wind Speed 1 mph (SSW)    
Max Wind Speed 12 mph    
Max Gust Speed -    
Visibility 7 miles    
Events Fog    
Averages and records for this station are not official NWS values.
T = Trace of Precipitation, MM = Missing Value Source: NWS Daily Summary

Daily Weather History Graph

Daily Weather History Graph

Search for Another Location

Airport or City:

Trip Planner

Search our weather history database for the weather conditions in past years. The results will help you decide how hot, cold, wet, or windy it might be!

Date:

Astronomy

Nov. 07, 2011 Rise Set
Actual Time 6:14 AM CST 4:44 PM CST
Civil Twilight 5:47 AM CST 5:11 PM CST
Nautical Twilight 5:16 AM CST 5:42 PM CST
Astronomical Twilight 4:46 AM CST 6:12 PM CST
Moon 2:52 PM CST (11/7) 3:20 AM CST (11/7)
Length of Visible Light 11h 24m
Length of Day
10h 30m
Waxing Gibbous, 92% of the Moon is Illuminated
Nov 7
Waxing Gibbous
Nov 10
Full
Nov 18
Last Quarter
Nov 25
New
Dec 2
First Quarter

Hourly Weather History & Observations

Time (CST) Temp. Dew Point Humidity Pressure Visibility Wind Dir Wind Speed Gust Speed Precip Events Conditions
12:56 AM 41.0 °F 39.9 °F 96% 30.31 in 10.0 mi Calm Calm - N/A   Clear
1:56 AM 45.0 °F 43.0 °F 93% 30.30 in 10.0 mi Calm Calm - N/A   Clear
2:56 AM 41.9 °F 39.9 °F 93% 30.30 in 10.0 mi Calm Calm - N/A   Clear
3:56 AM 41.0 °F 41.0 °F 100% 30.31 in 10.0 mi Calm Calm - N/A   Clear
4:56 AM 39.9 °F 39.9 °F 100% 30.32 in 10.0 mi Calm Calm - N/A   Clear
6:56 AM 41.9 °F 41.9 °F 100% 30.34 in 10.0 mi Calm Calm - N/A   Clear
7:56 AM 50.9 °F 50.9 °F 100% 30.35 in 10.0 mi Calm Calm - N/A   Clear
9:56 AM 68.0 °F 52.0 °F 56% 30.34 in 10.0 mi South 8.1 mph - N/A   Clear
11:56 AM 73.9 °F 52.9 °F 48% 30.28 in 10.0 mi SSW 11.5 mph - N/A   Partly Cloudy
12:56 PM 75.9 °F 52.9 °F 45% 30.26 in 10.0 mi South 5.8 mph - N/A   Partly Cloudy
1:56 PM 72.9 °F 54.0 °F 51% 30.24 in 10.0 mi West 5.8 mph - N/A   Scattered Clouds
2:56 PM 73.9 °F 52.9 °F 48% 30.23 in 10.0 mi SSE 6.9 mph - N/A   Partly Cloudy
3:56 PM 70.9 °F 52.0 °F 51% 30.22 in 10.0 mi South 4.6 mph - N/A   Clear
4:56 PM 63.9 °F 50.9 °F 63% 30.22 in 10.0 mi Calm Calm - N/A   Clear
5:56 PM 55.9 °F 50.0 °F 80% 30.23 in 10.0 mi Calm Calm - N/A   Clear
6:56 PM 54.0 °F 50.9 °F 89% 30.23 in 10.0 mi Calm Calm - N/A   Clear
7:56 PM 52.0 °F 50.0 °F 93% 30.23 in 10.0 mi Calm Calm - N/A   Clear
8:56 PM 50.0 °F 48.9 °F 96% 30.23 in 8.0 mi Calm Calm - N/A   Clear
9:56 PM 47.8 °F 47.8 °F 100% 30.23 in 10.0 mi Calm Calm - N/A   Clear
10:07 PM 46.4 °F 46.4 °F 100% 30.24 in 1.8 mi Calm Calm - N/A   Clear
10:15 PM 48.2 °F 48.2 °F 100% 30.24 in 1.2 mi Calm Calm - N/A   Clear
10:18 PM 48.2 °F 48.2 °F 100% 30.24 in 2.0 mi Calm Calm - N/A   Clear
10:26 PM 48.2 °F 48.2 °F 100% 30.24 in 10.0 mi Calm Calm - N/A   Clear
10:38 PM 46.4 °F 46.4 °F 100% 30.23 in 2.5 mi Calm Calm - N/A   Clear
10:45 PM 46.4 °F 46.4 °F 100% 30.23 in 4.0 mi Calm Calm - N/A   Clear
10:48 PM 46.4 °F 46.4 °F 100% 30.23 in 1.8 mi Calm Calm - N/A   Clear
10:56 PM 46.9 °F 46.9 °F 100% 30.21 in 1.5 mi Calm Calm - N/A   Clear
11:00 PM 46.4 °F 46.4 °F 100% 30.23 in 3.0 mi Calm Calm - N/A   Clear
11:45 PM 46.4 °F 46.4 °F 100% 30.23 in 1.2 mi Calm Calm - N/A   Clear
11:47 PM 46.4 °F 46.4 °F 100% 30.23 in 0.8 mi Calm Calm - N/A   Clear
11:56 PM 45.9 °F 45.9 °F 100% 30.21 in 0.2 mi Calm Calm - N/A Fog Fog